Weather History for Greensboro, NC

Change the Weather History Date:

Monday, December 9, 2013

  Actual Average Record
Temperature  
Mean Temperature 38 °F 43 °F  
Max Temperature 43 °F 52 °F 75 °F (1916)
Min Temperature 32 °F 33 °F 15 °F (1917)
Degree Days  
Heating Degree Days 27 22  
Month to date heating degree days 144 191  
Since 1 July heating degree days 878 871  
Cooling Degree Days 0 0  
Month to date cooling degree days 6 0  
Year to date cooling degree days 1387 1483  
Moisture  
Dew Point 36 °F    
Average Humidity 93    
Maximum Humidity 96    
Minimum Humidity 89    
Precipitation  
Precipitation 0.29 in 0.09 in 1.44 in (1924)
Month to date precipitation 1.17 0.90  
Year to date precipitation 46.41 40.12  
Snow  
Snow 0.00 in 0.00 in 0.20 in (1988)
Month to date snowfall 0.0 0.1  
Since 1 July snowfall T 0.2  
Snow Depth 0.00 in    
Sea Level Pressure  
Sea Level Pressure 30.14 in    
Wind  
Wind Speed 5 mph (SW)    
Max Wind Speed 10 mph    
Max Gust Speed 13 mph    
Visibility 4 miles    
Events Fog , Rain    
T = Trace of Precipitation, MM = Missing Value Source: NWS Daily Summary

Daily Weather History Graph

Daily Weather History Graph

Search for Another Location

Airport:

Trip Planner

Search our weather history database for the weather conditions in past years. The results will help you decide how hot, cold, wet, or windy it might be!

Date:

Astronomy

Dec. 09, 2013 Rise Set
Actual Time 7:19 AM EST 5:05 PM EST
Civil Twilight 6:50 AM EST 5:33 PM EST
Nautical Twilight 6:18 AM EST 6:05 PM EST
Astronomical Twilight 5:47 AM EST 6:37 PM EST
Moon 12:22 PM EST (12/9) No Moon Set
Length of Visible Light 10h 43m
Length of Day
9h 46m
Waxing Crescent, 51% of the Moon is Illuminated
Dec 9
Waxing Crescent
Dec 17
Full
Dec 25
Last Quarter
Jan 1
New
Jan 7
First Quarter

Hourly Weather History & Observations

Time (EST) Temp. Windchill Dew Point Humidity Pressure Visibility Wind Dir Wind Speed Gust Speed Precip Events Conditions
12:28 AM 32.0 °F - 30.2 °F 93% 30.25 in 2.5 mi Calm Calm - 0.00 in   Overcast
12:51 AM 32.0 °F 28.7 °F 30.2 °F 93% 30.23 in 1.5 mi North 3.5 mph - 0.00 in   Overcast
12:54 AM 32.0 °F - 30.0 °F 92% 30.25 in 1.5 mi Calm Calm - 0.00 in   Overcast
1:54 AM 32.0 °F - 30.9 °F 96% 30.25 in 2.0 mi Calm Calm - 0.00 in Rain Light Rain
2:54 AM 32.0 °F - 30.9 °F 96% 30.22 in 2.5 mi Calm Calm - 0.00 in Rain Light Rain
3:54 AM 33.1 °F 28.7 °F 32.0 °F 96% 30.18 in 2.5 mi South 4.6 mph - 0.01 in Rain Light Rain
4:54 AM 33.1 °F 26.9 °F 30.9 °F 92% 30.21 in 7.0 mi WNW 6.9 mph - 0.03 in Rain Light Rain
5:14 AM 33.8 °F 28.6 °F 32.0 °F 93% 30.19 in 10.0 mi WNW 5.8 mph - 0.00 in Rain Light Rain
5:49 AM 33.8 °F 30.8 °F 32.0 °F 93% 30.16 in 4.0 mi SSW 3.5 mph - 0.00 in   Overcast
5:54 AM 33.1 °F 28.7 °F 30.9 °F 92% 30.17 in 3.0 mi South 4.6 mph - 0.00 in   Overcast
6:54 AM 33.1 °F 26.9 °F 32.0 °F 96% 30.17 in 7.0 mi SW 6.9 mph - N/A   Overcast
7:30 AM 33.8 °F 28.6 °F 32.0 °F 93% 30.15 in 1.5 mi WSW 5.8 mph - 0.00 in   Light Drizzle
7:54 AM 34.0 °F 28.8 °F 32.0 °F 92% 30.18 in 1.5 mi WSW 5.8 mph - 0.00 in Rain Light Rain
8:54 AM 35.1 °F 30.1 °F 33.1 °F 92% 30.15 in 2.0 mi SSW 5.8 mph - 0.01 in Rain Light Rain
9:37 AM 35.6 °F 30.7 °F 33.8 °F 93% 30.14 in 1.8 mi South 5.8 mph - 0.07 in Rain Rain
9:54 AM 36.0 °F 30.3 °F 34.0 °F 93% 30.17 in 2.0 mi SW 6.9 mph - 0.10 in Rain Light Rain
10:20 AM 35.6 °F 29.9 °F 33.8 °F 93% 30.15 in 5.0 mi WSW 6.9 mph - 0.02 in Rain Light Rain
10:54 AM 37.0 °F 31.6 °F 35.1 °F 93% 30.15 in 5.0 mi SW 6.9 mph - 0.03 in Rain Light Rain
11:28 AM 37.4 °F 32.1 °F 35.6 °F 93% 30.12 in 7.0 mi SW 6.9 mph - 0.00 in   Overcast
11:54 AM 39.0 °F 35.7 °F 37.0 °F 93% 30.14 in 5.0 mi SW 4.6 mph - 0.00 in   Overcast
12:34 PM 39.2 °F 34.2 °F 37.4 °F 93% 30.11 in 2.5 mi SW 6.9 mph - N/A   Overcast
12:54 PM 39.9 °F 35.1 °F 39.0 °F 97% 30.10 in 1.5 mi SSW 6.9 mph - 0.00 in Rain Light Rain
1:47 PM 41.0 °F 35.2 °F 39.2 °F 93% 30.07 in 3.0 mi SW 9.2 mph - 0.03 in Rain Light Rain
1:54 PM 41.0 °F 35.8 °F 39.9 °F 96% 30.09 in 3.0 mi SW 8.1 mph - 0.03 in Rain Light Rain
2:54 PM 42.1 °F 38.4 °F 41.0 °F 96% 30.08 in 6.0 mi WSW 5.8 mph - 0.07 in   Overcast
3:54 PM 42.1 °F 37.1 °F 39.9 °F 92% 30.09 in 7.0 mi SW 8.1 mph - 0.00 in Rain Light Rain
4:30 PM 42.8 °F 40.1 °F 41.0 °F 93% 30.06 in 7.0 mi SSW 4.6 mph - 0.01 in Rain Light Rain
4:41 PM 42.8 °F 41.1 °F 41.0 °F 93% 30.06 in 8.0 mi WSW 3.5 mph - 0.01 in Rain Light Rain
4:54 PM 42.1 °F 37.7 °F 41.0 °F 96% 30.08 in 8.0 mi SW 6.9 mph - 0.01 in   Mostly Cloudy
5:54 PM 43.0 °F 38.8 °F 41.0 °F 93% 30.09 in 10.0 mi SW 6.9 mph - 0.00 in   Mostly Cloudy
6:54 PM 42.1 °F 39.2 °F 41.0 °F 96% 30.09 in 10.0 mi WSW 4.6 mph - N/A   Mostly Cloudy
7:54 PM 42.1 °F 40.2 °F 39.9 °F 92% 30.10 in 10.0 mi West 3.5 mph - N/A   Mostly Cloudy
8:38 PM 42.8 °F 41.1 °F 39.2 °F 87% 30.10 in 10.0 mi West 3.5 mph - N/A   Overcast
8:54 PM 42.1 °F 40.2 °F 39.9 °F 92% 30.11 in 8.0 mi WNW 3.5 mph - N/A   Mostly Cloudy
9:49 PM 41.0 °F 38.0 °F 39.2 °F 93% 30.07 in 1.8 mi WSW 4.6 mph - N/A   Overcast
9:54 PM 41.0 °F 37.1 °F 39.9 °F 96% 30.09 in 1.0 mi SW 5.8 mph - N/A   Overcast
10:30 PM 41.0 °F 38.0 °F 39.2 °F 93% 30.07 in 0.5 mi SW 4.6 mph - N/A Fog Fog
10:54 PM 41.0 °F 39.0 °F 39.9 °F 96% 30.08 in 0.2 mi WSW 3.5 mph - N/A Fog Fog
11:54 PM 41.0 °F 39.0 °F 39.9 °F 96% 30.05 in 0.2 mi SSW 3.5 mph - N/A Fog Fog